Data for 03/10/2017

Time Sea-Level Adjusted Pressure Absolute Pressure Temperature Relative Humidity Dew Point   
(mb) (inHg) (mb) (inHg) (C) (F) (%) (C) (F)
00:05 1021 30.15 850 25.1 -7.5 18.4 75 -11.3 11.7
00:10 1021 30.15 850 25.1 -7.5 18.6 74 -11.3 11.7
00:15 1020 30.12 850 25.1 -7.5 18.6 74 -11.3 11.7
00:20 1020 30.12 850 25.1 -7.4 18.6 74 -11.3 11.7
00:25 1020 30.12 850 25.1 -7.4 18.7 75 -11.1 12
00:30 1020 30.12 850 25.1 -7.2 19 75 -11 12.3
00:35 1020 30.12 850 25.1 -7.2 19.1 75 -10.9 12.4
00:40 1020 30.12 850 25.1 -7.2 19.1 75 -10.9 12.3
00:45 1020 30.12 849 25.07 -7.2 19.1 74 -11 12.3
00:50 1020 30.12 849 25.07 -7.3 18.9 75 -11 12.3
00:55 1020 30.12 849 25.07 -7.2 19 75 -10.9 12.3
01:00 1020 30.12 849 25.07 -7.2 19 75 -10.9 12.4
01:05 1020 30.12 849 25.07 -7.2 19.1 75 -10.9 12.3
01:10 1020 30.12 849 25.07 -7.2 19 75 -10.9 12.3
01:15 1020 30.12 849 25.07 -7.2 19.1 74 -11.1 12
01:20 1020 30.12 849 25.07 -7.2 19.1 75 -11 12.3
01:25 1020 30.12 849 25.07 -7.1 19.2 75 -10.9 12.4
01:30 1020 30.12 849 25.07 -7.1 19.2 75 -10.8 12.5
01:35 1020 30.12 849 25.07 -7.1 19.3 76 -10.6 12.9
01:40 1020 30.12 849 25.07 -7 19.5 76 -10.6 13
01:45 1020 30.12 849 25.07 -7 19.5 75 -10.6 12.9
01:50 1020 30.12 849 25.07 -7 19.4 75 -10.7 12.8
01:55 1020 30.12 849 25.07 -6.9 19.5 76 -10.5 13
02:00 1020 30.12 849 25.07 -6.8 19.7 76 -10.3 13.5
02:05 1020 30.12 849 25.07 -6.7 19.9 76 -10.3 13.4
02:10 1019 30.09 849 25.07 -6.7 20 76 -10.2 13.7
02:15 1019 30.09 849 25.07 -6.6 20.1 76 -10.2 13.6
02:20 1019 30.09 849 25.07 -6.5 20.2 76 -10 13.9
02:25 1019 30.09 849 25.07 -6.5 20.4 77 -9.9 14.1
02:30 1019 30.09 849 25.07 -6.4 20.5 76 -9.9 14.2
02:35 1019 30.09 849 25.07 -6.3 20.7 76 -9.8 14.3
02:40 1019 30.09 849 25.07 -6.2 20.8 76 -9.8 14.3
02:45 1019 30.09 848 25.04 -6.2 20.9 75 -9.9 14.3
02:50 1019 30.09 848 25.04 -6.2 20.8 75 -9.9 14.1
02:55 1019 30.09 848 25.04 -6.2 20.8 75 -10 14.1
03:00 1019 30.09 848 25.04 -6.2 20.8 75 -9.9 14.2
03:05 1019 30.09 848 25.04 -6.2 20.8 75 -9.9 14.2
03:10 1019 30.09 848 25.04 -6.2 20.9 76 -9.7 14.5
03:15 1019 30.09 848 25.04 -6.1 21.1 76 -9.7 14.5
03:20 1019 30.09 848 25.04 -6 21.2 76 -9.6 14.7
03:25 1019 30.09 848 25.04 -6 21.3 76 -9.5 15
03:30 1019 30.09 848 25.04 -5.9 21.4 76 -9.5 14.9
03:35 1018 30.06 848 25.04 -5.8 21.5 76 -9.5 15
03:40 1018 30.06 848 25.04 -5.8 21.6 76 -9.4 15
03:45 1018 30.06 848 25.04 -5.7 21.7 76 -9.3 15.2
03:50 1018 30.06 848 25.04 -5.6 21.9 75 -9.3 15.3
03:55 1018 30.06 848 25.04 -5.5 22 75 -9.3 15.3
04:00 1018 30.06 848 25.04 -5.5 22.1 75 -9.2 15.5
04:05 1018 30.06 847 25.01 -5.4 22.2 75 -9.1 15.6
04:10 1018 30.06 847 25.01 -5.4 22.3 75 -9.1 15.6
04:15 1018 30.06 847 25.01 -5.4 22.3 76 -9.1 15.7
04:20 1018 30.06 847 25.01 -5.4 22.3 76 -8.9 16
04:25 1018 30.06 847 25.01 -5.3 22.5 77 -8.8 16.2
04:30 1018 30.06 847 25.01 -5.2 22.7 77 -8.7 16.4
04:35 1018 30.06 847 25.01 -5.1 22.8 77 -8.5 16.7
04:40 1018 30.06 847 25.01 -5 23 77 -8.4 16.8
04:45 1018 30.06 847 25.01 -4.9 23.3 77 -8.4 16.9
04:50 1018 30.06 847 25.01 -4.8 23.4 77 -8.2 17.2
04:55 1018 30.06 847 25.01 -4.7 23.6 76 -8.2 17.2
05:00 1018 30.06 847 25.01 -4.7 23.6 76 -8.3 17.1
05:05 1018 30.06 847 25.01 -4.7 23.6 76 -8.2 17.2
05:10 1018 30.06 847 25.01 -4.6 23.8 76 -8.2 17.3
05:15 1018 30.06 847 25.01 -4.6 23.8 76 -8.2 17.3
05:20 1018 30.06 847 25.01 -4.6 23.7 77 -8.1 17.5
05:25 1018 30.06 847 25.01 -4.5 23.9 77 -8 17.6
05:30 1018 30.06 847 25.01 -4.4 24.1 77 -7.8 18
05:35 1018 30.06 847 25.01 -4.3 24.3 77 -7.7 18.1
05:40 1018 30.06 847 25.01 -4.2 24.5 76 -7.7 18.1
05:45 1018 30.06 847 25.01 -4.2 24.5 77 -7.6 18.3
05:50 1018 30.06 847 25.01 -4.1 24.6 77 -7.5 18.4
05:55 1018 30.06 847 25.01 -4 24.8 77 -7.4 18.6
06:00 1018 30.06 847 25.01 -4 24.8 77 -7.4 18.7
06:05 1017 30.03 847 25.01 -4 24.8 78 -7.3 18.8
06:10 1018 30.06 847 25.01 -4 24.8 78 -7.3 18.8
06:15 1018 30.06 847 25.01 -3.9 24.9 78 -7.3 18.9
06:20 1018 30.06 847 25.01 -3.8 25.1 78 -7.2 19.1
06:25 1018 30.06 847 25.01 -3.7 25.4 77 -7.1 19.2
06:30 1018 30.06 847 25.01 -3.5 25.7 77 -7 19.4
06:35 1018 30.06 847 25.01 -3.5 25.8 77 -7 19.5
06:40 1018 30.06 847 25.01 -3.3 26 77 -6.8 19.7
06:45 1018 30.06 847 25.01 -3.4 25.8 78 -6.8 19.8
06:50 1018 30.06 847 25.01 -3.5 25.6 77 -7 19.5
06:55 1018 30.06 847 25.01 -3.6 25.4 78 -7 19.4
07:00 1018 30.06 847 25.01 -3.7 25.4 78 -7.1 19.3
07:05 1018 30.06 847 25.01 -3.7 25.3 78 -6.9 19.5
07:10 1018 30.06 847 25.01 -3.6 25.5 78 -6.9 19.6
07:15 1018 30.06 847 25.01 -3.5 25.7 79 -6.7 19.9
07:20 1018 30.06 847 25.01 -3.2 26.2 76 -6.8 19.7
07:25 1018 30.06 847 25.01 -3.3 26.1 79 -6.5 20.3
07:30 1018 30.06 847 25.01 -3.2 26.2 80 -6.3 20.7
07:35 1018 30.06 847 25.01 -3.5 25.8 81 -6.3 20.7
07:40 1018 30.06 847 25.01 -3.7 25.4 83 -6.1 20.9
07:45 1018 30.06 847 25.01 -3.7 25.4 83 -6.2 20.9
07:50 1018 30.06 847 25.01 -3.8 25.2 83 -6.2 20.9
07:55 1018 30.06 847 25.01 -4 24.8 84 -6.2 20.8
08:00 1018 30.06 847 25.01 -4 24.9 84 -6.2 20.8
08:05 1018 30.06 847 25.01 -3.9 25 83 -6.4 20.5
08:10 1018 30.06 847 25.01 -3.8 25.1 84 -6.2 20.8
08:15 1018 30.06 847 25.01 -3.8 25.1 85 -6 21.2
08:20 1018 30.06 847 25.01 -3.8 25.2 85 -5.9 21.4
08:25 1018 30.06 847 25.01 -3.7 25.4 85 -5.8 21.5
08:30 1018 30.06 847 25.01 -3.6 25.5 85 -5.8 21.6
08:35 1018 30.06 847 25.01 -3.5 25.6 85 -5.7 21.7
08:40 1018 30.06 847 25.01 -3.5 25.8 85 -5.6 21.9
08:45 1018 30.06 847 25.01 -3.3 26.1 85 -5.5 22.1
08:50 1018 30.06 847 25.01 -3.1 26.4 84 -5.4 22.3
08:55 1018 30.06 847 25.01 -2.9 26.7 84 -5.2 22.6
09:00 1018 30.06 847 25.01 -2.7 27.1 85 -4.9 23.1
09:05 1018 30.06 847 25.01 -2.5 27.6 84 -4.7 23.5
09:10 1018 30.06 847 25.01 -2.4 27.7 85 -4.7 23.6
09:15 1018 30.06 847 25.01 -2.2 28 85 -4.4 24.1
09:20 1018 30.06 847 25.01 -1.9 28.7 85 -4 24.7
09:25 1018 30.06 847 25.01 -1.5 29.2 84 -3.9 25
09:30 1018 30.06 847 25.01 -1.4 29.4 84 -3.9 25
09:35 1018 30.06 847 25.01 -1.4 29.4 84 -3.7 25.3
09:40 1018 30.06 847 25.01 -1.2 29.8 84 -3.6 25.5
09:45 1018 30.06 847 25.01 -0.8 30.6 82 -3.4 25.8
09:50 1018 30.06 847 25.01 -0.1 31.9 79 -3.2 26.2
09:55 1018 30.06 847 25.01 0.3 32.6 78 -3.1 26.4
10:00 1018 30.06 847 25.01 0.4 32.8 78 -2.9 26.8
10:05 1018 30.06 847 25.01 0.5 32.9 77 -3.1 26.5
10:10 1018 30.06 847 25.01 0.5 33 78 -2.9 26.8
10:15 1018 30.06 847 25.01 0.6 33.1 78 -2.9 26.8
10:20 1018 30.06 847 25.01 0.9 33.7 78 -2.5 27.4
10:25 1018 30.06 847 25.01 1.4 34.6 75 -2.5 27.5
10:30 1018 30.06 847 25.01 1.7 35 75 -2.2 28
10:35 1018 30.06 847 25.01 2.2 35.9 73 -2.1 28.2
10:40 1018 30.06 847 25.01 2.5 36.5 73 -1.8 28.7
10:45 1018 30.06 847 25.01 2.6 36.7 73 -1.7 29
10:50 1018 30.06 847 25.01 3 37.4 72 -1.6 29.2
10:55 1018 30.06 847 25.01 3.5 38.3 69 -1.7 28.9
11:00 1018 30.06 847 25.01 3.7 38.7 67 -1.9 28.7
11:05 1018 30.06 847 25.01 3.9 39 67 -1.7 28.9
11:10 1018 30.06 847 25.01 3.9 38.9 67 -1.7 29
11:15 1018 30.06 848 25.04 3.7 38.7 68 -1.6 29.1
11:20 1018 30.06 848 25.04 3.3 38 71 -1.4 29.4
11:25 1018 30.06 848 25.04 3.4 38.1 69 -1.8 28.7
11:30 1018 30.06 848 25.04 3.8 38.9 67 -1.6 29.1
11:35 1018 30.06 848 25.04 4.1 39.5 64 -2 28.4
11:40 1019 30.09 848 25.04 3.6 38.4 67 -1.9 28.5
11:45 1019 30.09 848 25.04 3.1 37.5 67 -2.5 27.4
11:50 1019 30.09 848 25.04 2.9 37.2 67 -2.7 27.2
11:55 1019 30.09 848 25.04 2.7 36.8 71 -2.1 28.2
12:00 1019 30.09 848 25.04 2.6 36.6 69 -2.6 27.2
12:05 1018 30.06 848 25.04 2.4 36.3 69 -2.7 27.1
12:10 1018 30.06 848 25.04 2.7 36.8 71 -2.2 28.1
12:15 1018 30.06 847 25.01 3.3 37.9 69 -1.9 28.6
12:20 1018 30.06 848 25.04 3.5 38.3 67 -2 28.5
12:25 1018 30.06 848 25.04 4.3 39.7 66 -1.4 29.4
12:30 1018 30.06 848 25.04 4.9 40.9 62 -1.7 29
12:35 1018 30.06 848 25.04 5.2 41.4 63 -1.3 29.6
12:40 1018 30.06 848 25.04 5.6 42.1 60 -1.5 29.3
12:45 1018 30.06 847 25.01 5.7 42.2 63 -0.9 30.4
12:50 1018 30.06 848 25.04 6.2 43.1 60 -1.1 30.1
12:55 1019 30.09 848 25.04 6.6 43.8 61 -0.4 31.3
13:00 1019 30.09 848 25.04 7.1 44.7 57 -0.8 30.5
13:05 1018 30.06 848 25.04 7.4 45.2 57 -0.7 30.8
13:10 1018 30.06 848 25.04 7.7 45.9 55 -0.7 30.7
13:15 1018 30.06 848 25.04 7.5 45.6 56 -0.5 31
13:20 1018 30.06 848 25.04 7.7 45.9 55 -0.7 30.7
13:25 1018 30.06 848 25.04 7.9 46.3 55 -0.6 30.9
13:30 1018 30.06 848 25.04 8.1 46.6 55 -0.4 31.3
13:35 1019 30.09 848 25.04 7.9 46.3 54 -0.7 30.7
13:40 1018 30.06 848 25.04 7.8 46 56 -0.4 31.2
13:45 1018 30.06 848 25.04 7.6 45.6 56 -0.5 31
13:50 1018 30.06 848 25.04 7.8 46.1 55 -0.7 30.8
13:55 1018 30.06 848 25.04 8.2 46.8 55 -0.2 31.7
14:00 1018 30.06 847 25.01 8.7 47.7 53 -0.3 31.5
14:05 1018 30.06 847 25.01 9.3 48.7 52 -0 31.9
14:10 1018 30.06 847 25.01 9.4 48.9 52 0.1 32.1
14:15 1018 30.06 847 25.01 9.2 48.6 55 0.6 33.1
14:20 1018 30.06 847 25.01 9.1 48.4 54 0.3 32.5
14:25 1018 30.06 847 25.01 9.4 48.9 51 -0.2 31.7
14:30 1018 30.06 847 25.01 9.7 49.4 50 -0.3 31.4
14:35 1018 30.06 847 25.01 10 50.1 49 -0.1 31.9
14:40 1018 30.06 847 25.01 10.3 50.5 48 -0.2 31.6
14:45 1018 30.06 847 25.01 10.7 51.2 45 -0.8 30.5
14:50 1018 30.06 847 25.01 11.1 52.1 41 -1.6 29.1
14:55 1018 30.06 847 25.01 11.4 52.5 39 -1.9 28.6
15:00 1018 30.06 847 25.01 11.5 52.7 39 -2 28.4
15:05 1018 30.06 847 25.01 11.3 52.4 39 -2.2 28.1
15:10 1018 30.06 847 25.01 11.2 52.2 38 -2.4 27.7
15:15 1018 30.06 847 25.01 11.2 52.1 39 -2.3 27.9
15:20 1018 30.06 847 25.01 11.3 52.4 39 -2 28.5
15:25 1018 30.06 847 25.01 11.3 52.4 38 -2.4 27.7
15:30 1018 30.06 847 25.01 11 51.8 39 -2.5 27.6
15:35 1018 30.06 847 25.01 11.1 52 39 -2.3 27.8
15:40 1018 30.06 847 25.01 11.2 52.1 38 -2.7 27.2
15:45 1018 30.06 847 25.01 10.9 51.7 38 -2.6 27.3
15:50 1018 30.06 847 25.01 11.1 51.9 39 -2.3 27.8
15:55 1018 30.06 847 25.01 11.2 52.2 39 -2.3 27.8
16:00 1018 30.06 847 25.01 10.8 51.4 38 -2.9 26.8
16:05 1018 30.06 847 25.01 11 51.8 36 -3.3 26
16:10 1018 30.06 847 25.01 11.4 52.5 37 -2.9 26.8
16:15 1018 30.06 847 25.01 11.4 52.5 35 -3.5 25.6
16:20 1018 30.06 847 25.01 11.4 52.5 36 -3.3 26.1
16:25 1018 30.06 847 25.01 11.1 51.9 37 -3.1 26.4
16:30 1018 30.06 847 25.01 10.4 50.8 37 -3.5 25.8
16:35 1018 30.06 847 25.01 10.4 50.6 37 -3.5 25.7
16:40 1018 30.06 847 25.01 10.4 50.8 38 -3.3 26
16:45 1018 30.06 847 25.01 10.6 51.1 40 -2.4 27.7
16:50 1018 30.06 847 25.01 10.4 50.8 38 -3.1 26.4
16:55 1018 30.06 847 25.01 10.2 50.3 38 -3.5 25.8
17:00 1018 30.06 847 25.01 10.1 50.3 39 -3.3 26.1
17:05 1018 30.06 847 25.01 10.4 50.7 39 -3 26.6
17:10 1018 30.06 847 25.01 10.3 50.6 39 -3.1 26.4
17:15 1018 30.06 848 25.04 10.3 50.6 39 -3 26.6
17:20 1018 30.06 848 25.04 10.3 50.6 39 -2.9 26.7
17:25 1018 30.06 848 25.04 10.2 50.3 39 -3 26.7
17:30 1018 30.06 848 25.04 10.2 50.3 39 -3 26.5
17:35 1018 30.06 848 25.04 10.3 50.5 40 -2.8 27
17:40 1018 30.06 848 25.04 10.2 50.3 39 -3 26.7
17:45 1018 30.06 848 25.04 9.9 49.9 40 -3 26.5
17:50 1018 30.06 848 25.04 9.9 49.8 40 -3 26.7
17:55 1018 30.06 848 25.04 10.1 50.1 40 -3 26.6
18:00 1018 30.06 848 25.04 10.2 50.4 39 -3.1 26.5
18:05 1018 30.06 848 25.04 10.2 50.3 39 -3.2 26.2
18:10 1018 30.06 848 25.04 10.2 50.4 39 -3.2 26.3
18:15 1018 30.06 848 25.04 10.4 50.6 39 -3.1 26.5
18:20 1018 30.06 848 25.04 10.4 50.7 38 -3.2 26.3
18:25 1018 30.06 848 25.04 10.4 50.7 38 -3.4 25.9
18:30 1018 30.06 848 25.04 10.3 50.6 38 -3.2 26.2
18:35 1018 30.06 848 25.04 10.2 50.4 38 -3.3 26
18:40 1019 30.09 848 25.04 10.3 50.5 39 -3.2 26.3
18:45 1019 30.09 848 25.04 10.2 50.4 39 -2.9 26.7
18:50 1019 30.09 848 25.04 10.2 50.4 39 -3 26.6
18:55 1019 30.09 848 25.04 9.9 49.9 39 -3.2 26.2
19:00 1019 30.09 848 25.04 9.6 49.2 40 -3.2 26.2
19:05 1019 30.09 848 25.04 9.6 49.2 39 -3.8 25.1
19:10 1019 30.09 848 25.04 9.6 49.3 39 -3.5 25.7
19:15 1019 30.09 848 25.04 9.6 49.2 40 -3.2 26.3
19:20 1019 30.09 848 25.04 9.5 49 40 -3.4 25.9
19:25 1019 30.09 848 25.04 9.4 49 38 -4.2 24.5
19:30 1019 30.09 848 25.04 9.4 48.9 40 -3.6 25.5
19:35 1019 30.09 848 25.04 9.2 48.6 40 -3.7 25.4
19:40 1019 30.09 849 25.07 9.1 48.3 41 -3.5 25.7
19:45 1019 30.09 849 25.07 8.8 47.8 42 -3.4 25.9
19:50 1020 30.12 849 25.07 8.4 47.2 43 -3.4 25.8
19:55 1020 30.12 849 25.07 8 46.4 43 -3.7 25.4
20:00 1020 30.12 849 25.07 7.8 46 43 -4 24.8
20:05 1020 30.12 849 25.07 7.6 45.6 43 -4.3 24.3
20:10 1020 30.12 849 25.07 7.4 45.3 41 -4.9 23.2
20:15 1020 30.12 849 25.07 7.3 45.1 42 -4.6 23.6
20:20 1020 30.12 849 25.07 7.2 45 42 -4.8 23.3
20:25 1020 30.12 849 25.07 7 44.6 44 -4.5 23.9
20:30 1020 30.12 849 25.07 6.6 43.9 48 -3.6 25.6
20:35 1020 30.12 850 25.1 5.9 42.7 49 -4 24.8
20:40 1020 30.12 850 25.1 5.7 42.3 48 -4.4 24.2
20:45 1021 30.15 850 25.1 5.7 42.3 49 -4.2 24.4
20:50 1021 30.15 850 25.1 5.6 42.1 49 -4.4 24.1
20:55 1021 30.15 850 25.1 5.6 42 48 -4.5 23.9
21:00 1021 30.15 850 25.1 5.5 41.9 48 -4.7 23.6
21:05 1021 30.15 850 25.1 5.7 42.2 47 -4.8 23.4
21:10 1021 30.15 850 25.1 5.8 42.5 46 -4.8 23.3
21:15 1021 30.15 850 25.1 5.8 42.4 48 -4.4 24
21:20 1021 30.15 850 25.1 5.7 42.3 47 -4.8 23.4
21:25 1021 30.15 850 25.1 5.7 42.3 48 -4.4 24
21:30 1021 30.15 850 25.1 5.6 42 48 -4.7 23.6
21:35 1021 30.15 850 25.1 5.6 42.1 48 -4.5 24
21:40 1021 30.15 850 25.1 5.9 42.7 44 -5.2 22.6
21:45 1021 30.15 850 25.1 6.1 43 45 -4.8 23.4
21:50 1021 30.15 850 25.1 5.9 42.7 47 -4.6 23.8
21:55 1021 30.15 850 25.1 5.8 42.4 47 -4.5 23.8
22:00 1021 30.15 850 25.1 5.5 42 48 -4.7 23.6
22:05 1021 30.15 850 25.1 5.2 41.4 52 -3.9 24.9
22:10 1021 30.15 850 25.1 4.8 40.7 52 -4.1 24.6
22:15 1021 30.15 850 25.1 4.8 40.6 53 -4 24.8
22:20 1021 30.15 850 25.1 4.7 40.5 53 -4.1 24.6
22:25 1021 30.15 850 25.1 4.7 40.5 52 -4.2 24.4
22:30 1021 30.15 850 25.1 4.5 40.1 54 -4 24.8
22:35 1021 30.15 850 25.1 4.2 39.5 54 -4.2 24.4
22:40 1021 30.15 850 25.1 4 39.3 55 -4.3 24.3
22:45 1021 30.15 850 25.1 3.9 39 55 -4.2 24.4
22:50 1021 30.15 850 25.1 3.7 38.6 55 -4.4 24
22:55 1021 30.15 850 25.1 3.5 38.3 56 -4.4 24.1
23:00 1021 30.15 850 25.1 3.4 38 57 -4.3 24.3
23:05 1021 30.15 850 25.1 3.4 38 56 -4.5 23.8
23:10 1021 30.15 850 25.1 3.3 38 57 -4.3 24.2
23:15 1021 30.15 850 25.1 3.3 37.9 57 -4.4 24.1
23:20 1021 30.15 850 25.1 3.2 37.8 57 -4.5 23.8
23:25 1021 30.15 850 25.1 3.2 37.8 57 -4.4 24.1
23:30 1021 30.15 850 25.1 3.1 37.6 58 -4.4 24.1
23:35 1021 30.15 850 25.1 3 37.4 57 -4.7 23.6
23:40 1021 30.15 850 25.1 3.2 37.8 55 -4.9 23.3
23:45 1021 30.15 850 25.1 3.3 37.9 56 -4.7 23.5
23:50 1021 30.15 850 25.1 3.1 37.6 56 -4.9 23.3
23:55 1021 30.15 850 25.1 3.1 37.6 56 -4.8 23.3
24:00 1021 30.15 850 25.1 3.1 37.6 56 -4.8 23.3